Back to catalog

ATLAS 5 CENTAUR DEB

AliveHEO
NORAD 46642·DEBRIS·🇺🇸 United States

Launched Sep 17, 2014 from Cape Canaveral Space Force Station

Loading…

Next Passes (next 24 hours)

TLE

AgingSource: Space-Track

Epoch: Aug 28, 2026, 17:45 UTC

1 46642U 14055CS  26240.74013245 -.00000035  00000-0  00000-0 0  9996
2 46642  19.4799 156.3388 4551732 141.5271 261.7596  1.83251005 39233

Track ATLAS 5 CENTAUR DEB in real time with AllMySat

Download on the App Store